QPF
0.00 0.00 0.00 0.00 0.00 0.00 0.01 0.01 0.02 0.02 0.02 0.02 0.01 0.01 0.01 0.02 0.02 0.03 0.03 0.03 0.03 0.03 0.04 0.04 0.03 0.02 0.01 0.01 0.01 0.01 0.01 0.01 0.01 0.01 0.01 0.01 0.01 0.01 0.01 0.01 0.01 0.01 0.01 0.01
0.02 0.01 0.00 0.00 0.00 0.00 0.01 0.01 0.02 0.02 0.02 0.02 0.01 0.01 0.01 0.03 0.03 0.04 0.04 0.04 0.04 0.04 0.04 0.04 0.02 0.01 0.01 0.01 0.01 0.01 0.01 0.01 0.01 0.01 0.01 0.01 0.01 0.01 0.01 0.01 0.02 0.02 0.01 0.02
0.02 0.01 0.01 0.02 0.01 0.01 0.02 0.02 0.03 0.04 0.03 0.02 0.01 0.01 0.01 0.02 0.02 0.03 0.04 0.04 0.04 0.03 0.03 0.03 0.03 0.02 0.02 0.02 0.02 0.01 0.01 0.01 0.01 0.01 0.01 0.01 0.01 0.02 0.01 0.01 0.03 0.02 0.01 0.02
0.02 0.02 0.02 0.02 0.01 0.02 0.03 0.02 0.02 0.02 0.01 0.01 0.01 0.01 0.02 0.02 0.03 0.02 0.02 0.02 0.03 0.03 0.04 0.04 0.04 0.03 0.02 0.02 0.02 0.01 0.02 0.01 0.01 0.01 0.01 0.01 0.01 0.02 0.01 0.01 0.03 0.03 0.01 0.02
0.02 0.02 0.02 0.02 0.01 0.02 0.03 0.02 0.01 0.01 0.01 0.01 0.01 0.02 0.02 0.02 0.02 0.02 0.02 0.02 0.03 0.03 0.03 0.02 0.03 0.03 0.03 0.03 0.02 0.01 0.01 0.01 0.01 0.01 0.01 0.01 0.01 0.01 0.01 0.01 0.02 0.04 0.02 0.02
0.02 0.02 0.03 0.03 0.02 0.01 0.04 0.04 0.02 0.02 0.01 0.01 0.01 0.03 0.03 0.01 0.02 0.03 0.02 0.02 0.04 0.04 0.03 0.02 0.03 0.03 0.03 0.03 0.02 0.01 0.01 0.01 0.01 0.01 0.01 0.01 0.01 0.01 0.01 0.02 0.02 0.03 0.02 0.02
0.02 0.02 0.02 0.01 0.02 0.04 0.05 0.05 0.04 0.03 0.02 0.01 0.01 0.02 0.03 0.03 0.03 0.03 0.04 0.04 0.06 0.06 0.04 0.03 0.03 0.03 0.03 0.03 0.02 0.02 0.01 0.00 0.01 0.02 0.01 0.01 0.01 0.01 0.01 0.01 0.02 0.02 0.02 0.01
0.02 0.02 0.02 0.01 0.01 0.03 0.03 0.03 0.02 0.01 0.01 0.01 0.01 0.01 0.01 0.02 0.03 0.03 0.03 0.03 0.04 0.05 0.04 0.03 0.02 0.03 0.03 0.03 0.02 0.02 0.02 0.01 0.01 0.02 0.01 0.01 0.01 0.01 0.01 0.01 0.01 0.01 0.01 0.01
0.02 0.02 0.01 0.00 0.00 0.01 0.01 0.01 0.01 0.01 0.01 0.01 0.01 0.00 0.00 0.01 0.01 0.01 0.02 0.02 0.02 0.04 0.04 0.03 0.02 0.02 0.03 0.02 0.02 0.02 0.02 0.02 0.02 0.01 0.01 0.01 0.01 0.01 0.01 0.01 0.01 0.01 0.00 0.00
0.03 0.02 0.01 0.00 0.00 0.00 0.00 0.00 0.01 0.01 0.01 0.01 0.01 0.00 0.00 0.00 0.01 0.01 0.01 0.02 0.03 0.03 0.04 0.03 0.02 0.01 0.02 0.02 0.01 0.02 0.02 0.02 0.02 0.02 0.02 0.02 0.01 0.01 0.01 0.01 0.01 0.01 0.00 0.00
0.02 0.02 0.01 0.01 0.00 0.00 0.00 0.00 0.00 0.00 0.01 0.01 0.01 0.00 0.00 0.00 0.01 0.01 0.01 0.03 0.05 0.04 0.04 0.03 0.02 0.01 0.01 0.01 0.01 0.01 0.02 0.02 0.02 0.02 0.01 0.01 0.01 0.00 0.00 0.00 0.00 0.00 0.00 0.00
0.01 0.01 0.01 0.01 0.00 0.00 0.00 0.00 0.00 0.00 0.00 0.00 0.01 0.00 0.00 0.00 0.01 0.01 0.01 0.03 0.05 0.05 0.04 0.03 0.02 0.01 0.01 0.00 0.01 0.01 0.02 0.02 0.01 0.01 0.01 0.00 0.00 0.00 0.00 0.00 0.00 0.00 0.00 0.00
0.00 0.00 0.00 0.00 0.00 0.00 0.00 0.00 0.00 0.00 0.00 0.01 0.01 0.00 0.00 0.01 0.01 0.01 0.02 0.04 0.04 0.04 0.02 0.02 0.02 0.01 0.01 0.00 0.00 0.01 0.02 0.01 0.01 0.00 0.00 0.00 0.00 0.00 0.00 0.00 0.00 0.00 0.00 0.00
0.00 0.00 0.00 0.00 0.00 0.01 0.00 0.00 0.01 0.00 0.00 0.01 0.01 0.01 0.01 0.01 0.01 0.01 0.04 0.06 0.03 0.02 0.02 0.01 0.01 0.01 0.01 0.00 0.01 0.01 0.01 0.00 0.00 0.00 0.00 0.00 0.00 0.00 0.00 0.00 0.00 0.00 0.00 0.00
0.00 0.00 0.00 0.00 0.00 0.00 0.01 0.01 0.01 0.00 0.00 0.01 0.01 0.01 0.01 0.00 0.01 0.02 0.04 0.04 0.02 0.01 0.01 0.01 0.01 0.01 0.01 0.00 0.01 0.01 0.01 0.00 0.00 0.00 0.00 0.00 0.00 0.00 0.00 0.00 0.00 0.00 0.00 0.00
0.00 0.00 0.00 0.00 0.00 0.00 0.00 0.01 0.01 0.00 0.01 0.01 0.01 0.02 0.01 0.00 0.01 0.01 0.02 0.02 0.01 0.00 0.01 0.00 0.00 0.00 0.00 0.00 0.00 0.01 0.01 0.00 0.00 0.00 0.00 0.00 0.00 0.00 0.00 0.00 0.00 0.00 0.00 0.00
0.00 0.00 0.00 0.00 0.00 0.00 0.00 0.00 0.00 0.00 0.00 0.01 0.01 0.01 0.01 0.01 0.01 0.01 0.01 0.01 0.00 0.00 0.00 0.00 0.00 0.00 0.00 0.00 0.00 0.00 0.00 0.00 0.00 0.00 0.00 0.00 0.00 0.00 0.00 0.00 0.00 0.00 0.00 0.00
0.00 0.00 0.00 0.00 0.00 0.00 0.00 0.00 0.00 0.00 0.00 0.00 0.00 0.00 0.00 0.00 0.00 0.00 0.00 0.00 0.00 0.00 0.00 0.00 0.00 0.00 0.00 0.00 0.00 0.00 0.00 0.00 0.00 0.00 0.00 0.00 0.00 0.00 0.00 0.00 0.00 0.00 0.00 0.00
0.00 0.00 0.00 0.00 0.00 0.00 0.00 0.00 0.00 0.00 0.00 0.00 0.00 0.00 0.00 0.00 0.00 0.00 0.00 0.00 0.00 0.00 0.00 0.00 0.00 0.00 0.00 0.00 0.00 0.00 0.00 0.00 0.00 0.00 0.00 0.00 0.00 0.00 0.00 0.00 0.00 0.00 0.00 0.00
0.00 0.00 0.00 0.00 0.00 0.00 0.00 0.00 0.00 0.00 0.00 0.00 0.00 0.00 0.00 0.00 0.00 0.00 0.00 0.00 0.00 0.00 0.00 0.00 0.00 0.00 0.00 0.00 0.00 0.00 0.00 0.00 0.00 0.00 0.00 0.00 0.00 0.00 0.00 0.00 0.00 0.00 0.00 0.00
0.00 0.00 0.00 0.00 0.00 0.00 0.00 0.00 0.00 0.00 0.00 0.00 0.00 0.00 0.00 0.00 0.00 0.00 0.00 0.01 0.00 0.00 0.00 0.00 0.00 0.00 0.00 0.00 0.00 0.00 0.00 0.00 0.00 0.00 0.00 0.00 0.00 0.00 0.00 0.00 0.00 0.00 0.00 0.00
0.00 0.00 0.00 0.00 0.00 0.00 0.00 0.00 0.00 0.00 0.00 0.00 0.00 0.00 0.00 0.00 0.00 0.00 0.00 0.00 0.00 0.00 0.00 0.00 0.00 0.00 0.00 0.00 0.00 0.00 0.00 0.00 0.00 0.00 0.00 0.00 0.00 0.00 0.00 0.00 0.00 0.00 0.00 0.00
0.00 0.00 0.00 0.00 0.00 0.00 0.00 0.00 0.00 0.00 0.00 0.00 0.00 0.00 0.00 0.00 0.00 0.00 0.00 0.00 0.00 0.00 0.00 0.00 0.00 0.00 0.00 0.00 0.00 0.00 0.00 0.00 0.00 0.00 0.00 0.00 0.00 0.00 0.00 0.00 0.00 0.00 0.00 0.00
0.00 0.00 0.00 0.00 0.00 0.00 0.00 0.00 0.00 0.00 0.00 0.00 0.00 0.00 0.00 0.00 0.00 0.00 0.00 0.00 0.00 0.00 0.00 0.00 0.00 0.00 0.00 0.00 0.00 0.00 0.00 0.00 0.00 0.00 0.00 0.00 0.00 0.00 0.00 0.00 0.00 0.00 0.00 0.00
0.00 0.00 0.00 0.00 0.00 0.00 0.00 0.00 0.00 0.00 0.00 0.00 0.00 0.00 0.00 0.00 0.00 0.00 0.00 0.00 0.00 0.00 0.00 0.00 0.00 0.00 0.00 0.00 0.00 0.00 0.00 0.00 0.00 0.00 0.00 0.00 0.00 0.00 0.00 0.00 0.00 0.00 0.00 0.00
0.00 0.00 0.00 0.00 0.00 0.00 0.00 0.00 0.00 0.00 0.00 0.00 0.00 0.00 0.00 0.00 0.00 0.00 0.00 0.00 0.00 0.00 0.00 0.00 0.00 0.00 0.00 0.00 0.00 0.00 0.00 0.01 0.00 0.00 0.00 0.00 0.00 0.00 0.00 0.00 0.00 0.00 0.00 0.00
0.00 0.00 0.00 0.00 0.00 0.00 0.00 0.00 0.00 0.00 0.00 0.00 0.00 0.00 0.00 0.00 0.00 0.00 0.00 0.00 0.00 0.00 0.00 0.00 0.00 0.00 0.00 0.00 0.00 0.00 0.00 0.00 0.00 0.00 0.00 0.00 0.00 0.00 0.00 0.00 0.00 0.00 0.00 0.00
MSLP
1014.27 1014.15 1014.06 1014.05 1014.15 1014.41 1014.82 1015.39 1016.09 1016.90 1017.78 1018.69 1019.59 1020.44 1021.21 1021.89 1022.45 1022.88 1023.19 1023.39 1023.49 1023.52 1023.51 1023.47 1023.43 1023.41 1023.42 1023.45 1023.52 1023.59 1023.67 1023.72 1023.75 1023.75 1023.70 1023.62 1023.52 1023.40 1023.26 1023.12 1022.95 1022.77 1022.56 1022.31
1014.58 1014.51 1014.45 1014.46 1014.56 1014.79 1015.17 1015.69 1016.34 1017.09 1017.92 1018.78 1019.63 1020.44 1021.17 1021.79 1022.29 1022.67 1022.93 1023.08 1023.15 1023.16 1023.15 1023.13 1023.13 1023.17 1023.24 1023.34 1023.47 1023.61 1023.74 1023.84 1023.91 1023.94 1023.93 1023.89 1023.83 1023.75 1023.66 1023.55 1023.43 1023.28 1023.10 1022.88
1014.91 1014.89 1014.87 1014.89 1014.99 1015.19 1015.51 1015.97 1016.54 1017.21 1017.97 1018.75 1019.54 1020.29 1020.96 1021.53 1022.00 1022.35 1022.58 1022.72 1022.79 1022.81 1022.82 1022.83 1022.88 1022.96 1023.08 1023.23 1023.41 1023.58 1023.74 1023.88 1023.97 1024.02 1024.04 1024.02 1023.99 1023.94 1023.89 1023.82 1023.74 1023.64 1023.50 1023.31
1015.24 1015.27 1015.30 1015.34 1015.42 1015.59 1015.85 1016.23 1016.72 1017.30 1017.96 1018.66 1019.37 1020.06 1020.69 1021.23 1021.67 1022.01 1022.25 1022.41 1022.49 1022.54 1022.58 1022.63 1022.71 1022.82 1022.97 1023.15 1023.34 1023.52 1023.69 1023.82 1023.92 1023.97 1023.99 1023.99 1023.97 1023.94 1023.92 1023.89 1023.84 1023.78 1023.68 1023.54
1015.56 1015.65 1015.71 1015.76 1015.84 1015.97 1016.18 1016.48 1016.88 1017.37 1017.94 1018.57 1019.21 1019.85 1020.44 1020.97 1021.41 1021.77 1022.03 1022.21 1022.33 1022.42 1022.49 1022.56 1022.66 1022.78 1022.93 1023.10 1023.27 1023.44 1023.59 1023.70 1023.77 1023.81 1023.83 1023.82 1023.80 1023.78 1023.77 1023.76 1023.75 1023.73 1023.68 1023.59
1015.85 1015.98 1016.08 1016.15 1016.22 1016.32 1016.48 1016.72 1017.05 1017.47 1017.96 1018.52 1019.12 1019.72 1020.29 1020.82 1021.28 1021.66 1021.95 1022.17 1022.33 1022.44 1022.53 1022.62 1022.71 1022.82 1022.95 1023.09 1023.23 1023.36 1023.46 1023.54 1023.59 1023.61 1023.60 1023.58 1023.55 1023.53 1023.53 1023.53 1023.54 1023.55 1023.54 1023.51
1016.09 1016.26 1016.38 1016.46 1016.53 1016.62 1016.75 1016.95 1017.23 1017.59 1018.04 1018.55 1019.12 1019.70 1020.27 1020.81 1021.29 1021.69 1022.02 1022.28 1022.46 1022.60 1022.69 1022.77 1022.85 1022.93 1023.02 1023.11 1023.20 1023.29 1023.35 1023.39 1023.41 1023.40 1023.38 1023.34 1023.31 1023.29 1023.28 1023.29 1023.32 1023.35 1023.38 1023.39
1016.27 1016.47 1016.61 1016.71 1016.78 1016.87 1016.98 1017.16 1017.42 1017.76 1018.18 1018.67 1019.22 1019.80 1020.37 1020.92 1021.42 1021.85 1022.21 1022.48 1022.68 1022.82 1022.92 1022.98 1023.03 1023.07 1023.11 1023.15 1023.20 1023.23 1023.26 1023.27 1023.27 1023.25 1023.22 1023.18 1023.15 1023.13 1023.12 1023.14 1023.17 1023.22 1023.27 1023.33
1016.41 1016.62 1016.77 1016.88 1016.97 1017.06 1017.19 1017.37 1017.63 1017.96 1018.38 1018.87 1019.41 1019.99 1020.57 1021.12 1021.63 1022.07 1022.44 1022.72 1022.93 1023.07 1023.15 1023.19 1023.20 1023.20 1023.20 1023.20 1023.20 1023.21 1023.21 1023.21 1023.20 1023.17 1023.15 1023.12 1023.10 1023.09 1023.09 1023.11 1023.15 1023.21 1023.29 1023.37
1016.51 1016.72 1016.88 1017.00 1017.10 1017.22 1017.37 1017.58 1017.85 1018.21 1018.63 1019.13 1019.67 1020.24 1020.81 1021.36 1021.87 1022.31 1022.67 1022.95 1023.15 1023.27 1023.34 1023.36 1023.34 1023.31 1023.28 1023.24 1023.22 1023.20 1023.19 1023.18 1023.18 1023.17 1023.17 1023.16 1023.16 1023.17 1023.18 1023.22 1023.27 1023.34 1023.42 1023.51
1016.61 1016.80 1016.96 1017.09 1017.21 1017.36 1017.55 1017.79 1018.09 1018.47 1018.91 1019.41 1019.95 1020.51 1021.07 1021.60 1022.09 1022.51 1022.86 1023.13 1023.31 1023.42 1023.47 1023.47 1023.44 1023.39 1023.33 1023.28 1023.23 1023.21 1023.19 1023.19 1023.20 1023.21 1023.23 1023.25 1023.28 1023.31 1023.35 1023.40 1023.46 1023.53 1023.62 1023.70
1016.70 1016.87 1017.02 1017.16 1017.31 1017.49 1017.72 1018.00 1018.34 1018.74 1019.20 1019.70 1020.23 1020.77 1021.30 1021.80 1022.26 1022.65 1022.98 1023.23 1023.40 1023.51 1023.55 1023.55 1023.51 1023.45 1023.38 1023.31 1023.26 1023.22 1023.20 1023.21 1023.22 1023.25 1023.29 1023.34 1023.39 1023.45 1023.51 1023.58 1023.65 1023.73 1023.80 1023.88
1016.79 1016.94 1017.08 1017.23 1017.40 1017.61 1017.88 1018.19 1018.57 1018.99 1019.46 1019.96 1020.47 1020.98 1021.48 1021.95 1022.37 1022.73 1023.04 1023.27 1023.44 1023.55 1023.59 1023.59 1023.56 1023.50 1023.43 1023.35 1023.29 1023.24 1023.21 1023.21 1023.22 1023.25 1023.30 1023.36 1023.43 1023.50 1023.58 1023.66 1023.74 1023.82 1023.89 1023.94
1016.84 1016.97 1017.10 1017.25 1017.45 1017.69 1017.99 1018.35 1018.75 1019.19 1019.67 1020.16 1020.65 1021.13 1021.59 1022.02 1022.41 1022.75 1023.03 1023.26 1023.44 1023.55 1023.61 1023.63 1023.61 1023.56 1023.49 1023.41 1023.33 1023.26 1023.21 1023.18 1023.17 1023.18 1023.21 1023.27 1023.34 1023.41 1023.50 1023.58 1023.67 1023.74 1023.80 1023.84
1016.84 1016.94 1017.06 1017.23 1017.44 1017.71 1018.04 1018.43 1018.85 1019.31 1019.78 1020.26 1020.73 1021.19 1021.62 1022.01 1022.37 1022.70 1022.97 1023.21 1023.39 1023.53 1023.62 1023.66 1023.66 1023.63 1023.56 1023.48 1023.38 1023.28 1023.19 1023.12 1023.07 1023.04 1023.04 1023.06 1023.11 1023.18 1023.25 1023.33 1023.41 1023.48 1023.52 1023.54
1016.75 1016.83 1016.95 1017.12 1017.35 1017.65 1018.00 1018.41 1018.85 1019.31 1019.78 1020.25 1020.71 1021.14 1021.54 1021.91 1022.26 1022.57 1022.85 1023.09 1023.30 1023.47 1023.59 1023.67 1023.70 1023.69 1023.63 1023.53 1023.42 1023.29 1023.15 1023.02 1022.92 1022.84 1022.78 1022.77 1022.77 1022.81 1022.86 1022.93 1022.99 1023.04 1023.07 1023.07
1016.58 1016.65 1016.76 1016.94 1017.18 1017.49 1017.85 1018.27 1018.72 1019.19 1019.66 1020.12 1020.55 1020.97 1021.35 1021.71 1022.05 1022.36 1022.65 1022.91 1023.15 1023.35 1023.51 1023.63 1023.69 1023.70 1023.65 1023.56 1023.42 1023.26 1023.09 1022.91 1022.74 1022.60 1022.49 1022.41 1022.37 1022.37 1022.38 1022.42 1022.45 1022.49 1022.50 1022.49
1016.35 1016.41 1016.52 1016.69 1016.93 1017.25 1017.62 1018.04 1018.49 1018.95 1019.41 1019.86 1020.28 1020.68 1021.05 1021.40 1021.74 1022.05 1022.35 1022.64 1022.90 1023.14 1023.34 1023.50 1023.59 1023.63 1023.60 1023.52 1023.38 1023.19 1022.99 1022.77 1022.55 1022.36 1022.19 1022.06 1021.97 1021.91 1021.88 1021.88 1021.88 1021.89 1021.88 1021.85
1016.11 1016.16 1016.26 1016.43 1016.66 1016.97 1017.33 1017.73 1018.17 1018.62 1019.06 1019.50 1019.91 1020.29 1020.66 1021.00 1021.33 1021.65 1021.96 1022.27 1022.56 1022.82 1023.06 1023.25 1023.38 1023.45 1023.45 1023.38 1023.25 1023.07 1022.85 1022.61 1022.36 1022.13 1021.92 1021.74 1021.60 1021.49 1021.42 1021.37 1021.34 1021.31 1021.28 1021.24
1015.93 1015.96 1016.05 1016.20 1016.41 1016.69 1017.02 1017.41 1017.81 1018.24 1018.66 1019.07 1019.46 1019.84 1020.19 1020.52 1020.85 1021.17 1021.48 1021.80 1022.10 1022.39 1022.65 1022.87 1023.03 1023.14 1023.17 1023.13 1023.03 1022.87 1022.66 1022.42 1022.17 1021.92 1021.68 1021.47 1021.29 1021.15 1021.04 1020.95 1020.88 1020.81 1020.75 1020.69
1015.83 1015.85 1015.92 1016.04 1016.22 1016.46 1016.75 1017.09 1017.46 1017.85 1018.24 1018.62 1018.99 1019.34 1019.67 1020.00 1020.31 1020.62 1020.94 1021.25 1021.56 1021.85 1022.13 1022.37 1022.57 1022.70 1022.77 1022.77 1022.71 1022.58 1022.40 1022.19 1021.95 1021.70 1021.46 1021.24 1021.04 1020.87 1020.72 1020.60 1020.49 1020.40 1020.31 1020.22
1015.84 1015.85 1015.89 1015.97 1016.10 1016.29 1016.53 1016.81 1017.13 1017.47 1017.82 1018.16 1018.50 1018.83 1019.14 1019.44 1019.74 1020.04 1020.34 1020.64 1020.94 1021.24 1021.52 1021.77 1021.99 1022.15 1022.26 1022.30 1022.28 1022.20 1022.06 1021.88 1021.67 1021.45 1021.22 1021.01 1020.80 1020.62 1020.45 1020.30 1020.17 1020.05 1019.93 1019.81
1015.95 1015.93 1015.94 1015.97 1016.05 1016.18 1016.36 1016.57 1016.83 1017.11 1017.41 1017.72 1018.02 1018.31 1018.60 1018.88 1019.16 1019.43 1019.71 1020.00 1020.28 1020.57 1020.84 1021.10 1021.32 1021.51 1021.64 1021.72 1021.74 1021.70 1021.61 1021.47 1021.30 1021.11 1020.91 1020.71 1020.51 1020.33 1020.16 1020.00 1019.85 1019.71 1019.57 1019.44
1016.10 1016.06 1016.03 1016.02 1016.04 1016.10 1016.21 1016.36 1016.55 1016.77 1017.02 1017.27 1017.54 1017.80 1018.05 1018.30 1018.56 1018.81 1019.06 1019.32 1019.58 1019.85 1020.11 1020.35 1020.58 1020.77 1020.92 1021.02 1021.07 1021.07 1021.02 1020.92 1020.79 1020.63 1020.46 1020.28 1020.11 1019.93 1019.77 1019.62 1019.47 1019.33 1019.18 1019.04
1016.25 1016.19 1016.12 1016.05 1016.01 1016.01 1016.05 1016.14 1016.26 1016.43 1016.61 1016.82 1017.04 1017.27 1017.49 1017.71 1017.93 1018.16 1018.38 1018.61 1018.85 1019.09 1019.33 1019.55 1019.77 1019.96 1020.11 1020.22 1020.28 1020.30 1020.27 1020.20 1020.10 1019.97 1019.83 1019.67 1019.52 1019.37 1019.23 1019.09 1018.96 1018.83 1018.70 1018.56
1016.34 1016.25 1016.14 1016.04 1015.95 1015.89 1015.87 1015.89 1015.96 1016.06 1016.20 1016.36 1016.54 1016.72 1016.91 1017.10 1017.29 1017.48 1017.67 1017.87 1018.08 1018.29 1018.49 1018.70 1018.89 1019.06 1019.20 1019.30 1019.37 1019.39 1019.37 1019.31 1019.22 1019.11 1018.98 1018.85 1018.72 1018.60 1018.48 1018.37 1018.27 1018.17 1018.07 1017.95
1016.33 1016.22 1016.09 1015.95 1015.82 1015.72 1015.65 1015.62 1015.64 1015.69 1015.78 1015.89 1016.02 1016.17 1016.32 1016.47 1016.62 1016.78 1016.93 1017.10 1017.27 1017.44 1017.62 1017.79 1017.95 1018.09 1018.21 1018.29 1018.34 1018.35 1018.32 1018.26 1018.17 1018.06 1017.95 1017.83 1017.72 1017.62 1017.54 1017.47 1017.40 1017.34 1017.28 1017.20
Thickness
5693 5696 5698 5693 5691 5692 5690 5690 5685 5681 5675 5667 5661 5656 5648 5639 5630 5622 5614 5608 5603 5597 5591 5585 5580 5575 5571 5566 5563 5560 5558 5556 5553 5550 5549 5548 5547 5546 5546 5546 5548 5549 5549 5550
5682 5688 5689 5685 5685 5685 5682 5683 5680 5675 5665 5662 5657 5651 5640 5632 5624 5617 5610 5603 5598 5592 5585 5580 5575 5570 5566 5561 5558 5555 5553 5550 5547 5545 5543 5542 5541 5540 5540 5540 5541 5542 5543 5543
5675 5683 5681 5670 5674 5676 5675 5674 5672 5665 5658 5654 5646 5640 5634 5627 5620 5614 5607 5600 5593 5587 5581 5576 5571 5566 5561 5557 5554 5551 5548 5546 5543 5542 5539 5537 5537 5536 5535 5534 5535 5536 5537 5537
5676 5672 5659 5664 5675 5673 5668 5665 5666 5660 5655 5650 5643 5636 5630 5625 5619 5611 5604 5597 5590 5583 5577 5571 5566 5561 5556 5553 5550 5547 5544 5542 5540 5538 5536 5534 5533 5531 5530 5530 5530 5530 5530 5531
5672 5668 5664 5664 5668 5668 5664 5658 5659 5654 5647 5642 5638 5631 5623 5620 5616 5608 5600 5594 5586 5579 5573 5567 5562 5557 5553 5550 5547 5544 5542 5539 5537 5535 5533 5531 5529 5527 5526 5526 5526 5526 5526 5526
5671 5663 5656 5658 5666 5670 5663 5652 5654 5651 5643 5638 5634 5629 5619 5613 5609 5602 5595 5588 5580 5574 5568 5562 5557 5554 5550 5547 5544 5542 5539 5537 5534 5532 5530 5528 5526 5524 5524 5523 5523 5524 5523 5523
5667 5662 5659 5660 5664 5664 5651 5646 5649 5647 5641 5635 5632 5627 5617 5609 5602 5595 5588 5581 5575 5569 5563 5558 5554 5550 5547 5544 5542 5539 5536 5534 5531 5529 5527 5525 5524 5523 5522 5523 5523 5522 5522 5521
5664 5658 5650 5656 5660 5653 5647 5648 5646 5642 5637 5631 5623 5617 5610 5604 5597 5590 5583 5576 5570 5565 5559 5554 5550 5547 5544 5541 5539 5536 5534 5532 5529 5527 5527 5525 5523 5522 5522 5522 5523 5523 5522 5522
5658 5651 5651 5654 5651 5649 5649 5645 5641 5637 5631 5625 5617 5611 5605 5598 5592 5586 5580 5573 5568 5562 5557 5552 5549 5546 5543 5540 5537 5535 5533 5531 5529 5527 5526 5525 5524 5524 5525 5525 5528 5529 5528 5527
5654 5649 5650 5649 5648 5646 5645 5641 5638 5633 5626 5620 5613 5607 5600 5594 5588 5582 5577 5571 5565 5560 5556 5551 5548 5545 5542 5539 5537 5535 5533 5531 5530 5529 5527 5526 5526 5528 5528 5529 5530 5530 5530 5530
5650 5648 5647 5646 5644 5643 5640 5637 5633 5628 5623 5618 5611 5604 5598 5591 5586 5581 5575 5570 5565 5561 5556 5552 5548 5544 5542 5539 5537 5536 5534 5533 5532 5531 5531 5528 5528 5527 5528 5526 5526 5527 5531 5531
5651 5650 5649 5642 5642 5640 5636 5632 5628 5623 5618 5613 5609 5603 5597 5591 5585 5580 5575 5570 5566 5561 5557 5553 5549 5545 5542 5540 5539 5537 5535 5535 5535 5534 5533 5534 5533 5531 5525 5525 5524 5523 5523 5524
5653 5653 5649 5643 5641 5638 5634 5629 5625 5620 5615 5610 5606 5602 5596 5591 5585 5580 5576 5571 5567 5563 5559 5555 5551 5548 5545 5543 5540 5539 5538 5537 5538 5538 5537 5538 5537 5537 5536 5531 5527 5526 5526 5526
5651 5649 5643 5640 5637 5635 5631 5627 5623 5618 5613 5609 5605 5601 5596 5591 5586 5581 5577 5573 5569 5565 5561 5557 5554 5551 5548 5546 5543 5542 5541 5538 5539 5540 5541 5542 5542 5543 5543 5544 5542 5540 5534 5531
5650 5649 5645 5640 5637 5632 5629 5625 5620 5615 5611 5607 5604 5600 5596 5591 5587 5583 5579 5576 5572 5568 5565 5562 5558 5555 5552 5550 5547 5546 5546 5545 5544 5545 5545 5546 5546 5548 5549 5549 5549 5550 5549 5543
5648 5646 5643 5639 5634 5631 5628 5625 5621 5616 5612 5608 5604 5600 5597 5593 5589 5585 5582 5578 5575 5572 5569 5566 5563 5560 5557 5555 5552 5551 5550 5546 5546 5549 5551 5551 5552 5553 5554 5554 5555 5556 5556 5556
5648 5643 5641 5638 5635 5633 5631 5628 5625 5620 5615 5610 5606 5602 5598 5595 5591 5587 5584 5582 5579 5576 5573 5570 5568 5565 5563 5560 5558 5559 5558 5555 5549 5553 5556 5557 5558 5558 5559 5560 5561 5562 5563 5562
5654 5651 5648 5644 5640 5636 5633 5631 5628 5623 5619 5614 5610 5605 5601 5597 5594 5591 5588 5586 5582 5579 5577 5575 5573 5570 5568 5566 5564 5565 5565 5564 5562 5563 5563 5563 5563 5564 5565 5566 5567 5567 5568 5568
5656 5653 5650 5647 5644 5641 5638 5634 5630 5627 5623 5618 5613 5609 5605 5602 5599 5596 5593 5590 5587 5584 5582 5580 5576 5574 5572 5571 5568 5568 5569 5570 5569 5569 5569 5566 5566 5569 5571 5571 5572 5573 5574 5575
5656 5654 5652 5649 5646 5643 5640 5636 5633 5629 5626 5622 5618 5613 5609 5606 5603 5600 5597 5595 5594 5594 5590 5586 5581 5579 5578 5577 5572 5576 5577 5576 5576 5576 5575 5575 5575 5576 5577 5578 5579 5579 5580 5580
5657 5655 5653 5650 5647 5645 5642 5639 5635 5631 5628 5625 5621 5618 5614 5611 5608 5605 5602 5601 5600 5597 5594 5588 5587 5586 5585 5584 5577 5582 5583 5582 5582 5582 5582 5582 5582 5582 5583 5584 5584 5585 5585 5586
5657 5655 5653 5651 5648 5645 5643 5640 5637 5634 5631 5627 5625 5622 5619 5615 5612 5610 5608 5607 5607 5601 5599 5597 5595 5593 5592 5587 5587 5588 5589 5588 5588 5589 5588 5588 5588 5588 5589 5589 5590 5591 5591 5592
5657 5655 5653 5651 5648 5646 5643 5641 5639 5637 5633 5631 5628 5626 5623 5621 5620 5616 5614 5613 5611 5605 5604 5605 5602 5597 5592 5590 5593 5595 5595 5594 5594 5594 5594 5594 5594 5594 5594 5594 5595 5596 5596 5596
5655 5653 5652 5650 5649 5646 5643 5642 5640 5638 5636 5635 5633 5630 5627 5625 5623 5623 5622 5617 5613 5608 5608 5608 5602 5597 5592 5596 5598 5599 5599 5599 5599 5599 5599 5600 5599 5599 5599 5599 5599 5600 5600 5600
5653 5652 5651 5648 5647 5646 5644 5643 5641 5639 5638 5637 5636 5633 5631 5630 5628 5627 5625 5622 5615 5610 5611 5609 5603 5599 5597 5601 5602 5603 5604 5604 5604 5604 5604 5603 5603 5604 5604 5603 5603 5604 5604 5604
5651 5650 5650 5648 5648 5647 5648 5647 5645 5644 5642 5640 5639 5637 5635 5633 5631 5629 5626 5624 5621 5614 5615 5615 5612 5604 5605 5607 5608 5608 5607 5607 5606 5605 5605 5605 5605 5606 5606 5606 5606 5606 5606 5607
5650 5649 5648 5649 5649 5649 5649 5648 5646 5645 5644 5642 5640 5639 5637 5635 5633 5631 5628 5627 5625 5621 5619 5619 5618 5616 5614 5613 5613 5612 5610 5610 5609 5608 5608 5607 5607 5607 5608 5607 5607 5607 5607 5608